{"data":{"norad_id":28786,"intl_designator":"2005-028A","name":"THAICOM 4","alt_names":[],"object_type":"PAYLOAD","status":"ACTIVE","operator":null,"country":"THAI","launch_date":"2005-08-11","launch_site_code":"FRGUI","launch_vehicle":null,"mission":null,"orbit_class":"UNKNOWN","rcs_meters":15.8677,"size_class":null,"mass_kg":null,"dimensions":null,"purposes":["comms"],"wikipedia_slug":null,"has_3d_model":false,"image_url":null,"decayed_at":null,"tle_current":{"epoch":"2026-09-19T20:42:54.707616Z","epoch_age_seconds":69384,"freshness":"FRESH","line1":"1 28786U 05028A   26262.86313319 -.00000366  00000+0  00000+0 0  9992","line2":"2 28786   0.4829  84.5087 0000484  43.7738 300.7044  1.00271710 53191","mean_motion":1.0027171,"eccentricity":4.84e-5,"inclination_deg":0.4829,"raan_deg":84.5087,"arg_perigee_deg":43.7738,"mean_anomaly_deg":300.7044,"bstar":0,"rev_number":5319,"period_min":1436.0979781835,"perigee_km":35784.575212382,"apogee_km":35788.656760471,"semimajor_km":42164.752986426,"source":"CELESTRAK","updated_at":"2026-09-20T09:00:35.124992Z"}}}